[[{"header":{"parameterUnit":"m.s-1","parameterCategory":1,"la1":30.2991,"la2":30.254,"lo1":-89.0895,"lo2":-89.0444,"dy":0.0017,"dx":0.0017,"nx":28,"ny":28,"refTime":"2025-11-24T03:00:00:Z","depth":0,"parameterNumber":2,"parameterNumberName":"U-component_of_WINDS"},"data":[0,0,0,0,0,0,0,0,0,0,0,0,0,0,0,0,0,0,0,0,0,0,0,0,0,0,0,0,0,0,0,0,0,0,0,0,0,0,0,0,0,0,0,0,0,0,0,0,0,0,0,0,0,0,0,0,0,0,-1.7327,-1.7328,0,-1.7353,-1.7353,-1.7354,-1.729,-1.7288,-1.7286,-1.7285,-1.7313,-1.7316,-1.7319,0,0,0,0,0,0,0,0,0,0,0,0,0,-1.7228,-1.723,-1.7327,-1.7328,-1.7328,-1.7353,-1.7353,-1.7354,-1.7291,-1.7288,-1.7286,-1.7284,-1.7313,-1.7316,-1.7319,0,0,0,0,0,0,0,0,0,0,0,0,0,-1.7264,-1.7231,-1.7327,-1.73,-1.7297,-1.7353,-1.7353,-1.7354,-1.7291,-1.7288,-1.7285,-1.7283,-1.7311,-1.7315,-1.7319,-1.7403,0,0,-1.7331,-1.7333,0,0,0,0,0,0,0,0,-1.7262,-1.7268,-1.7303,-1.7302,-1.7299,-1.7315,-1.7329,-1.737,-1.7292,-1.7294,-1.7285,-1.7281,-1.7317,-1.732,-1.7331,-1.7405,-1.7406,-1.7332,-1.7334,-1.7336,-1.7337,0,0,0,0,0,0,0,-1.726,-1.7266,-1.7338,-1.7304,-1.7302,-1.7287,-1.7289,-1.7336,-1.7322,-1.7293,-1.7289,-1.7293,-1.7315,-1.7328,-1.7332,-1.7406,-1.7331,-1.7335,-1.7337,-1.7339,-1.7552,-1.7555,0,0,0,0,0,0,-1.726,-1.7265,-1.7337,-1.7338,-1.7273,-1.7291,-1.7293,-1.7313,-1.7321,-1.7319,-1.7295,-1.729,-1.7323,-1.7327,-1.7332,-1.7432,-1.7336,-1.7339,-1.7342,-1.7548,-1.7552,-1.7556,0,0,0,0,0,0,-1.7258,-1.7267,-1.7336,-1.73,-1.7308,-1.7296,-1.7319,-1.7315,-1.7328,-1.7322,-1.732,-1.7311,-1.732,-1.7327,-1.7386,-1.7432,-1.7341,-1.7345,-1.7545,-1.755,-1.7554,-1.7632,0,0,0,0,0,0,-1.7256,-1.7267,-1.7298,-1.7301,-1.731,-1.7388,-1.7322,-1.7318,-1.7335,-1.7328,-1.7336,-1.7335,-1.7318,-1.7381,-1.739,-1.7436,-1.7348,-1.754,-1.7547,-1.7553,-1.7625,-1.7639,-1.7651,0,0,0,0,0,-1.7253,-1.7319,-1.73,-1.7309,-1.7348,-1.7391,-1.7396,-1.7375,-1.7339,-1.737,-1.7367,-1.7334,-1.7426,-1.7387,-1.7398,-1.7445,-1.7537,-1.7545,-1.7552,-1.7619,-1.7636,-1.765,0,0,0,0,0,0,-1.7322,-1.7319,-1.7298,-1.7367,-1.738,-1.738,-1.7419,-1.7393,-1.7417,-1.741,-1.7384,-1.7386,-1.7451,-1.7454,-1.7411,-1.7528,-1.7476,-1.7485,-1.7523,-1.7539,-1.7551,-1.7549,-1.7351,0,0,0,0,0,-1.7345,-1.7379,-1.7375,-1.7437,-1.7444,-1.7431,-1.7449,-1.7432,-1.7444,-1.7449,-1.745,-1.7465,-1.7496,-1.7518,-1.7547,-1.7626,-1.7627,-1.7664,-1.7676,-1.7687,-1.7695,-1.7738,-1.7755,-1.758,-1.758,-1.758,0,0,-1.7393,-1.7396,-1.7419,-1.7451,-1.7459,-1.7496,-1.7436,-1.7477,-1.7505,-1.7456,-1.7512,-1.7514,-1.7528,-1.7598,-1.7628,-1.7602,-1.7744,-1.7696,-1.7705,-1.7707,-1.7748,-1.7764,-1.7779,-1.7585,-1.7584,-1.7584,0,0,-1.75,-1.7506,-1.7558,-1.7567,-1.758,-1.7571,-1.7584,-1.7589,-1.7588,-1.7643,-1.7608,-1.7641,-1.7696,-1.7708,-1.7721,-1.7835,-1.7807,-1.7846,-1.7912,-1.7954,-1.7968,-1.798,-1.8021,-1.8036,-1.7855,-1.7855,-1.7855,0,-1.7559,-1.7612,-1.7588,-1.7632,-1.7648,-1.7605,-1.7659,-1.767,-1.7692,-1.7704,-1.7674,-1.7743,-1.775,-1.7822,-1.785,-1.7862,-1.7877,-1.7844,-1.7968,-1.798,-1.799,-1.8029,-1.8045,-1.7859,-1.7859,-1.7858,-1.7858,0,-1.7684,-1.7722,-1.7763,-1.7784,-1.7805,-1.7854,-1.7838,-1.7862,-1.7844,-1.7839,-1.7897,-1.7904,-1.7934,-1.795,-1.7933,-1.8021,-1.8004,-1.7972,-1.7918,-1.8012,-1.8048,-1.8063,-1.7866,-1.7864,-1.7863,-1.7862,0,0,-1.7834,-1.7843,-1.7858,-1.7868,-1.788,-1.7909,-1.7957,-1.7985,-1.8007,-1.8024,-1.8064,-1.8113,-1.8083,-1.8098,-1.8082,-1.812,-1.821,-1.8082,-1.8082,-1.8106,-1.8309,-1.8333,-1.835,-1.8192,-1.8195,-1.8197,-1.8307,0,-1.794,-1.802,-1.8001,-1.8081,-1.8116,-1.8078,-1.8119,-1.8132,-1.8129,-1.8159,-1.8156,-1.8191,-1.8149,-1.8158,-1.8193,-1.8192,-1.8251,-1.8184,-1.823,-1.8232,-1.8227,-1.8369,-1.8394,-1.8498,-1.8321,-1.8324,-1.8326,0,-1.8073,-1.8095,-1.8179,-1.8186,-1.82,-1.8237,-1.8263,-1.8292,-1.8307,-1.8302,-1.832,-1.8297,-1.8346,-1.8293,-1.8361,-1.8316,-1.8334,-1.8336,-1.834,-1.8343,-1.8284,-1.8376,-1.8531,-1.8547,-1.8348,-1.8346,-1.8344,0,-1.8174,-1.8225,-1.8282,-1.8291,-1.8301,-1.8329,-1.8334,-1.8345,-1.8364,-1.8388,-1.84,-1.8429,-1.8445,-1.8468,-1.8455,-1.8417,-1.8525,-1.8471,-1.8524,-1.8524,-1.8547,-1.8546,-1.8707,-1.856,-1.8559,-1.8559,-1.8559,0,-1.8294,-1.8347,-1.8327,-1.8362,-1.8421,-1.8399,-1.8458,-1.8459,-1.847,-1.8506,-1.8475,-1.8509,-1.8489,-1.8522,-1.8512,-1.857,-1.8578,-1.8576,-1.8573,-1.8579,-1.8579,-1.859,-1.8582,-1.8563,-1.8562,-1.8562,-1.8561,0,-1.8416,-1.8405,-1.8464,-1.8469,-1.8472,-1.8515,-1.8519,-1.8553,-1.8548,-1.8593,-1.8603,-1.8596,-1.8633,-1.8622,-1.8663,-1.8657,-1.873,-1.8718,-1.8725,-1.8722,-1.8775,-1.8771,-1.8949,-1.8971,-1.881,-1.8811,-1.8813,0,-1.8493,-1.8532,-1.8542,-1.8563,-1.857,-1.8605,-1.8624,-1.8606,-1.8628,-1.8648,-1.8679,-1.8714,-1.8741,-1.8803,-1.8803,-1.8834,-1.8822,-1.8883,-1.8827,-1.8832,-1.8823,-1.8821,-1.8825,-1.8894,-1.8896,-1.8897,-1.8898,0,-1.863,-1.8623,-1.8652,-1.868,-1.8703,-1.8724,-1.8743,-1.8762,-1.8745,-1.8771,-1.8809,-1.883,-1.8872,-1.8908,-1.8937,-1.8944,-1.8919,-1.8916,-1.893,-1.8936,-1.8939,-1.8938,-1.8755,-1.8912,-1.891,-1.8909,-1.8909,-1.8908,-1.8732,-1.8766,-1.8778,-1.8811,-1.8823,-1.8841,-1.8873,-1.8873,-1.8903,-1.8936,-1.8923,-1.8967,-1.8982,-1.9019,-1.903,-1.9065,-1.9042,-1.9062,-1.9067,-1.9072,-1.9079,-1.8934,-1.907,-1.907,-1.907,-1.9069,-1.9069,0,-1.8868,-1.8874,-1.8905,-1.8932,-1.8959,-1.8932,-1.8952,-1.8976,-1.9015,-1.9031,-1.9058,-1.9102,-1.9137,-1.914,-1.9173,-1.9201,-1.919,-1.921,-1.9208,-1.921,-1.9098,-1.9082,-1.9218,-1.9218,-1.9218,-1.9218,-1.9218,-1.9218,-1.8942,-1.8998,-1.8993,-1.9055,-1.9061,-1.9103,-1.9117,-1.9134,-1.9146,-1.9197,-1.9226,-1.9227,-1.9238,-1.9272,-1.9304,-1.9304,-1.9317,-1.9342,-1.9338,-1.9232,-1.9218,-1.9203,-1.9189,-1.9345,-1.9345,-1.9447,-1.9448,-1.9448]},{"header":{"parameterUnit":"m.s-1","parameterCategory":1,"la1":30.2991,"la2":30.254,"lo1":-89.0895,"lo2":-89.0444,"dy":0.0017,"dx":0.0017,"nx":28,"ny":28,"refTime":"2025-11-24T03:00:00:Z","depth":0,"parameterNumber":3,"parameterNumberName":"V-component_of_WINDS"},"data":[0,0,0,0,0,0,0,0,0,0,0,0,0,0,0,0,0,0,0,0,0,0,0,0,0,0,0,0,0,0,0,0,0,0,0,0,0,0,0,0,0,0,0,0,0,0,0,0,0,0,0,0,0,0,0,0,0,0,1.0912,1.0913,0,1.0938,1.0939,1.0939,1.0992,1.0993,1.0994,1.0995,1.1017,1.1016,1.1016,0,0,0,0,0,0,0,0,0,0,0,0,0,1.0904,1.0904,1.0912,1.0913,1.0913,1.0938,1.0939,1.0939,1.0991,1.0993,1.0994,1.0995,1.1017,1.1016,1.1016,0,0,0,0,0,0,0,0,0,0,0,0,0,1.0916,1.0904,1.0912,1.0942,1.0945,1.0938,1.0939,1.0939,1.0991,1.0993,1.0994,1.0996,1.1017,1.1016,1.1016,1.098,0,0,1.1014,1.1014,0,0,0,0,0,0,0,0,1.0916,1.0917,1.0938,1.094,1.0944,1.0964,1.0944,1.0953,1.0991,1.0974,1.0995,1.0997,1.0997,1.0999,1.1,1.0981,1.0982,1.1014,1.1014,1.1013,1.1013,0,0,0,0,0,0,0,1.0915,1.0916,1.0922,1.0938,1.0941,1.0953,1.0957,1.0946,1.0976,1.0975,1.0979,1.0982,1.0999,1.1,1.1001,1.0982,1.1014,1.1013,1.1013,1.1013,1.0937,1.0935,0,0,0,0,0,0,1.091,1.0915,1.0922,1.0923,1.0933,1.0952,1.0956,1.0955,1.0976,1.0981,1.098,1.0984,1.1,1.1001,1.1002,1.0962,1.1013,1.1013,1.1012,1.0938,1.0936,1.0935,0,0,0,0,0,0,1.091,1.091,1.0921,1.092,1.0922,1.0951,1.0949,1.0955,1.0956,1.098,1.0986,1.0976,1.1002,1.1002,1.0986,1.0964,1.1012,1.1012,1.094,1.0938,1.0935,1.0882,0,0,0,0,0,0,1.0909,1.091,1.0897,1.092,1.0922,1.0905,1.0948,1.0954,1.0956,1.0961,1.0978,1.0982,1.1003,1.0986,1.0985,1.0964,1.1011,1.0942,1.0939,1.0936,1.0886,1.0878,1.0871,0,0,0,0,0,1.0909,1.088,1.0897,1.0897,1.0908,1.0904,1.0905,1.0932,1.0953,1.0941,1.0956,1.0981,1.0966,1.0984,1.0983,1.0961,1.0944,1.094,1.0936,1.0889,1.0879,1.0871,0,0,0,0,0,0,1.0853,1.0883,1.0902,1.088,1.0889,1.0913,1.0898,1.092,1.0922,1.0927,1.0958,1.0961,1.094,1.0949,1.0968,1.0928,1.0959,1.0955,1.0923,1.0914,1.0907,1.0906,1.1011,0,0,0,0,0,1.0838,1.0834,1.086,1.0838,1.0842,1.0869,1.0868,1.0888,1.0898,1.0902,1.0916,1.0924,1.0921,1.0918,1.0916,1.0887,1.0892,1.0872,1.0864,1.0858,1.0854,1.084,1.0831,1.0922,1.0922,1.0922,0,0,1.0807,1.0824,1.0819,1.0827,1.0837,1.0831,1.0872,1.0863,1.0859,1.09,1.0886,1.0896,1.0907,1.0884,1.0874,1.089,1.083,1.0853,1.0848,1.0848,1.0835,1.0827,1.0819,1.092,1.092,1.0921,0,0,1.0748,1.076,1.0744,1.0753,1.0767,1.0785,1.0781,1.0802,1.0811,1.0797,1.0828,1.0822,1.0817,1.0823,1.0826,1.077,1.0793,1.0768,1.073,1.0716,1.0709,1.0702,1.0683,1.0675,1.0764,1.0764,1.0764,0,1.0708,1.0701,1.0732,1.0722,1.0725,1.0763,1.0746,1.0753,1.0765,1.0766,1.0784,1.0778,1.0788,1.0767,1.0754,1.0754,1.075,1.0767,1.0707,1.0701,1.0696,1.0678,1.067,1.0761,1.0761,1.0762,1.0762,0,1.0651,1.0646,1.0631,1.0644,1.0645,1.0631,1.0658,1.0655,1.0675,1.0691,1.0676,1.069,1.0692,1.0688,1.0706,1.067,1.068,1.0702,1.0734,1.0684,1.0667,1.066,1.0757,1.0758,1.0759,1.0759,0,0,1.0557,1.0588,1.0582,1.0589,1.0608,1.0604,1.0592,1.0596,1.0593,1.06,1.059,1.0585,1.0606,1.0609,1.0628,1.0615,1.0571,1.0639,1.064,1.0626,1.0532,1.0516,1.0507,1.0586,1.0585,1.0584,1.0531,0,1.0503,1.0486,1.0513,1.0489,1.0485,1.0522,1.0511,1.0521,1.0535,1.0533,1.0548,1.0544,1.0572,1.0574,1.0563,1.0578,1.0552,1.0583,1.0577,1.0576,1.0574,1.0498,1.0481,1.043,1.0525,1.0524,1.0523,0,1.0437,1.0443,1.042,1.0441,1.044,1.043,1.0437,1.0434,1.0445,1.0457,1.046,1.0484,1.0472,1.0503,1.0487,1.0507,1.0507,1.0514,1.0512,1.0513,1.0547,1.0497,1.0415,1.0407,1.0513,1.0514,1.0515,0,1.0372,1.0374,1.0361,1.0365,1.0389,1.0382,1.0391,1.0404,1.0405,1.041,1.0411,1.0413,1.0414,1.0415,1.0438,1.0459,1.042,1.0452,1.0429,1.0428,1.0419,1.0419,1.0336,1.0417,1.0418,1.0418,1.0418,0,1.0309,1.0293,1.0332,1.0323,1.0306,1.0337,1.0319,1.0332,1.0344,1.0338,1.0368,1.0362,1.0393,1.0389,1.0407,1.0391,1.0391,1.04,1.0405,1.0397,1.0396,1.0397,1.0401,1.0416,1.0416,1.0417,1.0417,0,1.0234,1.0259,1.0247,1.0271,1.0277,1.0263,1.0284,1.0276,1.0293,1.0285,1.0285,1.031,1.0308,1.0331,1.0332,1.0344,1.032,1.0331,1.0317,1.032,1.0295,1.0297,1.021,1.02,1.0287,1.0286,1.0286,0,1.0192,1.0181,1.0205,1.0204,1.0212,1.021,1.0212,1.0241,1.0241,1.0254,1.0245,1.0245,1.0247,1.024,1.0258,1.0259,1.0271,1.024,1.0271,1.0264,1.0271,1.0271,1.027,1.0233,1.0232,1.0231,1.0231,0,1.0116,1.0129,1.0131,1.0137,1.0139,1.0144,1.0152,1.0149,1.0181,1.0179,1.0178,1.0179,1.0181,1.0181,1.0186,1.0194,1.0217,1.0221,1.0215,1.0208,1.0201,1.0205,1.03,1.0223,1.0223,1.0224,1.0224,1.0225,1.0056,1.0049,1.0065,1.0066,1.0075,1.0081,1.0076,1.0093,1.0093,1.0098,1.0115,1.011,1.0122,1.0131,1.0137,1.0134,1.0148,1.014,1.0139,1.0136,1.0132,1.0201,1.0134,1.0135,1.0135,1.0135,1.0135,0,0.9982,0.9995,0.9995,1.0006,1.0007,1.003,1.004,1.0038,1.0035,1.0045,1.0046,1.0045,1.0045,1.0063,1.0065,1.0058,1.0069,1.0058,1.0059,1.006,1.0118,1.0123,1.0049,1.0049,1.0049,1.0049,1.0049,1.0049,0.9944,0.9932,0.9947,0.994,0.9952,0.995,0.9953,0.9959,0.9968,0.9965,0.9966,0.9978,0.9991,0.9994,0.9995,1.0,0.9999,0.9985,0.9993,1.0048,1.0056,1.0064,1.0069,0.9984,0.9984,0.9936,0.9935,0.9935]}]]